Showing default

KUIPER-00035, 63748

Orbit data source: Space-Track

KUIPER-00035, 63748 is a payload satellite owned by Kuiper Systems (US) in LEO that was launched on Mon, 28 Apr 2025 UTC via an ATLAS V 551 launch vehicle from the Air Force Eastern Test Range (AFETR). Payload-class satellites include a variety of spacecraft equipped with specific instruments for various scientific and technological missions. These include communications satellites like Starlink; space stations such as the ISS; scientific satellites like the Hubble; Earth observation satellites from companies like Planet Labs, Umbra, and HawkEye 360; GPS; miniature CubeSats for education and research; and military/defense satellites.

Loading next visibility...
Identifier
63748, 2025-088AA
Orbit
LEO
Country
Flag of USUS
Related business
Manufacturer
Kuiper Systems
Mission
Operational Commercial Communications
Bus & Motor
KUIPER, Unknown motor
Mass
~490 kg wet, ~490 kg dry
Launch date (UTC)
2025-04-28 (8 months ago)
Launch vehicle
ATLAS V 551
Launch site
Air Force Eastern Test Range (AFETR)
Object type
Payload
Rocket body
Debris
Shape & HBR
Box + 2 Pan, 3.4 m
Radar Cross Section
2.326 m², Large (>1 m²)

Expand to show TLE details & history
Last TLE update: 21 hours ago

TLE from 21 hours ago
0 KUIPER-00035
1 63748U 25088AA  25348.82233946  .00002466  00000-0  35250-3 0  9996
2 63748  51.8995 129.3956 0007636 144.6883 215.4587 14.79933643 34949
Epoch: 2025-12-14T19:44Z
TLE epoch observation values (Epoch: 2025-12-14T19:44:10.129Z)
Latitude
0.00004°
Longitude
109.62368°
Altitude
634.64 km
Speed
7.54 km/s
True Right ascension
08h 37m 34s
True Declination
0° 00' 00"
Sunlit
Object was in full shadow at epoch
Visualization orbit readout
Latitude
Unknown
Longitude
Unknown
Altitude
Unknown
Speed
Unknown
Apparent Right ascension
Unknown
Apparent Declination
Unknown
Sunlit
N/A
Visualization observer readout
Local Sidereal Time
15:11:33
Azimuth
Unknown
Elevation
Unknown
Doppler factor
Unknown
Orbital elements
Apogee altitude
635.336 km
Perigee altitude
624.633 km
Semi-major axis
7,008.122 km
Eccentricity
0.00076
Inclination
51.8995°
RAAN
129.3956°
Arg. of periapsis
144.6883°
True anomaly
215.40798°
Mean anomaly
215.4587°
Eccentric anomaly
215.43334°
Mean motion
3.69948 °/min
Orbital period
97.31 mins
BSTAR
0.0003525
Loading maneuver chart data...
Computing Atmospheric mass density...
Loading historical data...
Loading historical data...
Loading historical data...
Loading historical data...
Loading historical data...
Loading historical data...
Loading historical data...

Documentation

Showing up to 5 results
|